| time (UTC) | temp C | wind direction | speed KPH | gust KPH | rain 1hr cm | rain 24hr cm | rain mn cm | humidity % | barometer mb |
| 20260831080041 | 24 | 359 | 1.6 | 0.0 | 0.00 | 0.00 | 0.00 | 50 | 1010.8 |
| 20260831074534 | 23 | 359 | 1.6 | 0.0 | 0.00 | 0.00 | 0.00 | 51 | 1010.6 |
| 20260831073030 | 23 | 359 | 1.6 | 0.0 | 0.00 | 0.00 | 0.00 | 52 | 1010.8 |
| 20260831071525 | 23 | 357 | 0.0 | 0.0 | 0.00 | 0.00 | 0.00 | 51 | 1010.6 |
| 20260831070024 | 23 | 357 | 0.0 | 0.0 | 0.00 | 0.00 | 0.00 | 50 | 1010.6 |
| 20260831064517 | 23 | 359 | 0.0 | 0.0 | 0.00 | 0.00 | 0.00 | 51 | 1010.5 |
| 20260831063015 | 22 | 357 | 0.0 | 0.0 | 0.00 | 0.00 | 0.00 | 51 | 1010.7 |
| 20260831061508 | 22 | 282 | 0.0 | 0.0 | 0.00 | 0.00 | 0.00 | 50 | 1010.7 |
| 20260831060004 | 22 | 282 | 0.0 | 0.0 | 0.00 | 0.00 | 0.00 | 50 | 1010.3 |
| 20260831054600 | 22 | 299 | 0.0 | 0.0 | 0.00 | 0.00 | 0.00 | 57 | 1010.7 |
| 20260831053124 | 22 | 299 | 0.0 | 0.0 | 0.00 | 0.00 | 0.00 | 48 | 1010.6 |
| 20260831051601 | 21 | 299 | 0.0 | 0.0 | 0.00 | 0.00 | 0.00 | 50 | 1010.3 |
| 20260831050047 | 21 | 299 | 0.0 | 0.0 | 0.00 | 0.00 | 0.00 | 50 | 1010.2 |
| 20260831044543 | 21 | 299 | 0.0 | 0.0 | 0.00 | 0.00 | 0.00 | 49 | 1010.2 |
| 20260831043042 | 21 | 298 | 1.6 | 0.0 | 0.00 | 0.00 | 0.00 | 47 | 1010.2 |
| 20260831041538 | 21 | 298 | 4.8 | 0.0 | 0.00 | 0.00 | 0.00 | 48 | 1010.1 |
| 20260831040031 | 21 | 298 | 8.0 | 0.0 | 0.00 | 0.00 | 0.00 | 48 | 1010.0 |
| 20260831034528 | 21 | 298 | 8.0 | 0.0 | 0.00 | 0.00 | 0.00 | 46 | 1010.1 |
| 20260831033044 | 21 | 285 | 8.0 | 0.0 | 0.00 | 0.00 | 0.00 | 43 | 1010.1 |
| 20260831031519 | 21 | 288 | 9.7 | 0.0 | 0.00 | 0.00 | 0.00 | 41 | 1010.0 |
| 20260831030015 | 21 | 359 | 9.7 | 0.0 | 0.00 | 0.00 | 0.00 | 39 | 1009.9 |
| 20260831024512 | 22 | 357 | 11.3 | 0.0 | 0.00 | 0.00 | 0.00 | 35 | 1010.0 |
| 20260831023008 | 22 | 359 | 11.3 | 0.0 | 0.00 | 0.00 | 0.00 | 32 | 1010.1 |
| 20260831021506 | 22 | 357 | 9.7 | 0.0 | 0.00 | 0.00 | 0.00 | 38 | 1010.1 |
| 20260831020111 | 21 | 192 | 8.0 | 0.0 | 0.00 | 0.00 | 0.00 | 47 | 1010.0 |
| 20260831014556 | 21 | 198 | 8.0 | 0.0 | 0.00 | 0.00 | 0.00 | 47 | 1010.1 |
| 20260831013058 | 21 | 357 | 4.8 | 0.0 | 0.00 | 0.00 | 0.00 | 49 | 1010.1 |
| 20260831011548 | 22 | 359 | 6.4 | 0.0 | 0.00 | 0.00 | 0.00 | 45 | 1010.3 |
| 20260831010044 | 21 | 193 | 6.4 | 0.0 | 0.00 | 0.00 | 0.00 | 50 | 1010.3 |
| 20260831004540 | 21 | 191 | 8.0 | 0.0 | 0.00 | 0.00 | 0.00 | 51 | 1010.3 |
| 20260831003038 | 22 | 359 | 9.7 | 0.0 | 0.00 | 0.00 | 0.00 | 47 | 1010.4 |
| 20260831001532 | 22 | 357 | 9.7 | 0.0 | 0.00 | 0.00 | 0.00 | 49 | 1010.3 |
| 20260831000034 | 22 | 359 | 11.3 | 0.0 | 0.00 | 0.00 | 0.00 | 49 | 1010.3 |
| 20260830234534 | 22 | 359 | 9.7 | 0.0 | 0.00 | 0.00 | 0.00 | 51 | 1010.3 |
| 20260830233018 | 22 | 289 | 9.7 | 0.0 | 0.00 | 0.00 | 0.00 | 46 | 1010.5 |
| 20260830231514 | 22 | 359 | 6.4 | 0.0 | 0.00 | 0.00 | 0.00 | 46 | 1010.7 |
| 20260830230012 | 22 | 185 | 6.4 | 0.0 | 0.00 | 0.00 | 0.00 | 55 | 1010.6 |
| 20260830224509 | 22 | 175 | 4.8 | 0.0 | 0.00 | 0.00 | 0.00 | 57 | 1010.7 |
| 20260830223007 | 22 | 169 | 4.8 | 0.0 | 0.00 | 0.00 | 0.00 | 57 | 1010.6 |
| 20260830221503 | 22 | 169 | 6.4 | 0.0 | 0.00 | 0.00 | 0.00 | 54 | 1010.6 |
| 20260830214557 | 21 | 164 | 3.2 | 0.0 | 0.00 | 0.00 | 0.00 | 74 | 1010.5 |
| 20260830213051 | 21 | 164 | 3.2 | 0.0 | 0.00 | 0.00 | 0.00 | 74 | 1010.6 |
| 20260830211544 | 21 | 164 | 3.2 | 0.0 | 0.00 | 0.00 | 0.00 | 74 | 1010.7 |
| 20260830210040 | 21 | 164 | 3.2 | 0.0 | 0.00 | 0.00 | 0.00 | 74 | 1010.7 |
| 20260830204536 | 21 | 165 | 4.8 | 0.0 | 0.00 | 0.00 | 0.00 | 74 | 1010.8 |
| 20260830203032 | 21 | 160 | 4.8 | 0.0 | 0.00 | 0.00 | 0.00 | 75 | 1010.7 |
| 20260830201526 | 21 | 154 | 4.8 | 0.0 | 0.00 | 0.00 | 0.00 | 75 | 1010.8 |
| 20260830200022 | 21 | 152 | 3.2 | 0.0 | 0.00 | 0.00 | 0.00 | 75 | 1010.9 |
| 20260830194519 | 21 | 134 | 3.2 | 0.0 | 0.00 | 0.00 | 0.00 | 75 | 1010.9 |
| 20260830193014 | 21 | 127 | 4.8 | 0.0 | 0.00 | 0.00 | 0.00 | 74 | 1010.9 |
| 20260830191513 | 22 | 121 | 4.8 | 0.0 | 0.00 | 0.00 | 0.00 | 74 | 1011.0 |
| 20260830190006 | 22 | 106 | 3.2 | 0.0 | 0.00 | 0.00 | 0.00 | 74 | 1010.8 |
| 20260830184502 | 22 | 97 | 6.4 | 0.0 | 0.00 | 0.00 | 0.00 | 74 | 1010.6 |
| 20260830183057 | 22 | 82 | 8.0 | 0.0 | 0.00 | 0.00 | 0.00 | 74 | 1010.3 |
| 20260830181553 | 22 | 78 | 9.7 | 0.0 | 0.00 | 0.00 | 0.00 | 72 | 1010.1 |
| 20260830180053 | 22 | 55 | 9.7 | 0.0 | 0.00 | 0.00 | 0.00 | 69 | 1009.9 |
| 20260830174545 | 23 | 47 | 3.2 | 0.0 | 0.00 | 0.00 | 0.00 | 62 | 1010.0 |
| 20260830173045 | 24 | 0 | 0.0 | 0.0 | 0.00 | 0.00 | 0.00 | 56 | 1010.0 |
| 20260830171539 | 24 | 3 | 0.0 | 0.0 | 0.00 | 0.00 | 0.00 | 55 | 1010.1 |
| 20260830170041 | 24 | 10 | 3.2 | 0.0 | 0.00 | 0.00 | 0.00 | 55 | 1010.1 |
| 20260830164527 | 24 | 24 | 6.4 | 0.0 | 0.00 | 0.00 | 0.00 | 55 | 1009.9 |
| 20260830163026 | 25 | 55 | 3.2 | 0.0 | 0.00 | 0.00 | 0.00 | 53 | 1009.9 |
| 20260830161517 | 25 | 23 | 4.8 | 0.0 | 0.00 | 0.00 | 0.00 | 52 | 1009.9 |
| 20260830160019 | 25 | 7 | 3.2 | 0.0 | 0.00 | 0.00 | 0.00 | 51 | 1009.9 |
| 20260830154510 | 25 | 44 | 4.8 | 0.0 | 0.00 | 0.00 | 0.00 | 52 | 1009.9 |
| 20260830153004 | 25 | 58 | 9.7 | 0.0 | 0.00 | 0.00 | 0.00 | 51 | 1009.9 |
| 20260830151609 | 25 | 66 | 6.4 | 0.0 | 0.00 | 0.00 | 0.00 | 50 | 1009.7 |
| 20260830150059 | 25 | 58 | 6.4 | 0.0 | 0.00 | 0.00 | 0.00 | 48 | 1009.8 |
| 20260830144557 | 26 | 51 | 3.2 | 0.0 | 0.00 | 0.00 | 0.00 | 47 | 1009.8 |
| 20260830143048 | 26 | 344 | 6.4 | 0.0 | 0.00 | 0.00 | 0.00 | 47 | 1009.8 |
| 20260830141542 | 26 | 40 | 4.8 | 0.0 | 0.00 | 0.00 | 0.00 | 46 | 1009.8 |
| 20260830140039 | 26 | 41 | 6.4 | 0.0 | 0.00 | 0.00 | 0.00 | 45 | 1010.0 |
| 20260830134536 | 26 | 69 | 4.8 | 0.0 | 0.00 | 0.00 | 0.00 | 44 | 1010.0 |
| 20260830133032 | 26 | 48 | 4.8 | 0.0 | 0.00 | 0.00 | 0.00 | 45 | 1010.0 |
| 20260830131524 | 26 | 315 | 9.7 | 0.0 | 0.00 | 0.00 | 0.00 | 47 | 1010.4 |
| 20260830130020 | 26 | 51 | 8.0 | 0.0 | 0.00 | 0.00 | 0.00 | 45 | 1010.4 |
| 20260830124529 | 25 | 56 | 9.7 | 0.0 | 0.00 | 0.00 | 0.00 | 44 | 1010.5 |
| 20260830123011 | 25 | 65 | 11.3 | 0.0 | 0.00 | 0.00 | 0.00 | 43 | 1010.5 |
| 20260830121506 | 26 | 92 | 6.4 | 0.0 | 0.00 | 0.00 | 0.00 | 42 | 1010.4 |
| 20260830120002 | 25 | 313 | 9.7 | 0.0 | 0.00 | 0.00 | 0.00 | 40 | 1010.5 |
| 20260830114606 | 25 | 48 | 9.7 | 0.0 | 0.00 | 0.00 | 0.00 | 41 | 1010.4 |
| 20260830113053 | 25 | 42 | 8.0 | 0.0 | 0.00 | 0.00 | 0.00 | 39 | 1010.5 |
| 20260830111549 | 25 | 3 | 8.0 | 0.0 | 0.00 | 0.00 | 0.00 | 42 | 1010.5 |
| 20260830110046 | 25 | 82 | 11.3 | 0.0 | 0.00 | 0.00 | 0.00 | 43 | 1010.7 |
| 20260830104544 | 25 | 85 | 11.3 | 0.0 | 0.00 | 0.00 | 0.00 | 40 | 1010.7 |
| 20260830103036 | 25 | 51 | 6.4 | 0.0 | 0.00 | 0.00 | 0.00 | 41 | 1011.0 |
| 20260830101530 | 25 | 34 | 6.4 | 0.0 | 0.00 | 0.00 | 0.00 | 40 | 1011.1 |
| 20260830100026 | 25 | 62 | 1.6 | 0.0 | 0.00 | 0.00 | 0.00 | 40 | 1011.2 |
| 20260830094523 | 25 | 42 | 6.4 | 0.0 | 0.00 | 0.00 | 0.00 | 39 | 1011.3 |
| 20260830093030 | 23 | 284 | 8.0 | 0.0 | 0.00 | 0.00 | 0.00 | 41 | 1011.4 |
| 20260830091513 | 23 | 308 | 8.0 | 0.0 | 0.00 | 0.00 | 0.00 | 43 | 1011.6 |
| 20260830090009 | 23 | 305 | 9.7 | 0.0 | 0.00 | 0.00 | 0.00 | 44 | 1011.5 |
| 20260830084505 | 22 | 296 | 9.7 | 0.0 | 0.00 | 0.00 | 0.00 | 44 | 1011.7 |
| 20260830083100 | 22 | 288 | 8.0 | 0.0 | 0.00 | 0.00 | 0.00 | 44 | 1011.7 |
| 20260830081554 | 22 | 301 | 6.4 | 0.0 | 0.00 | 0.00 | 0.00 | 46 | 1011.6 |